Datum;"Wasserstand in cm";"Stationsnummer: 5874001";"Stationsname: Blankensee, Br�cke";"Gew?sser: Nieplitz";"Fehlwerte: -777"
"03.04.2024 00:00";146
"03.04.2024 00:15";145
"03.04.2024 00:30";145
"03.04.2024 00:45";145
"03.04.2024 01:00";145
"03.04.2024 01:15";145
"03.04.2024 01:30";145
"03.04.2024 01:45";146
"03.04.2024 02:00";146
"03.04.2024 02:15";145
"03.04.2024 02:30";145
"03.04.2024 02:45";146
"03.04.2024 03:00";146
"03.04.2024 03:15";146
"03.04.2024 03:30";146
"03.04.2024 03:45";146
"03.04.2024 04:00";146
"03.04.2024 04:15";146
"03.04.2024 04:30";146
"03.04.2024 04:45";146
"03.04.2024 05:00";146
"03.04.2024 05:15";146
"03.04.2024 05:30";146
"03.04.2024 05:45";146
"03.04.2024 06:00";146
"03.04.2024 06:15";146
"03.04.2024 06:30";146
"03.04.2024 06:45";146
"03.04.2024 07:00";146
"03.04.2024 07:15";146
"03.04.2024 07:30";146
"03.04.2024 07:45";146
"03.04.2024 08:00";146
"03.04.2024 08:15";146
"03.04.2024 08:30";146
"03.04.2024 08:45";146
"03.04.2024 09:00";146
"03.04.2024 09:15";146
"03.04.2024 09:30";146
"03.04.2024 09:45";146
"03.04.2024 10:00";146
"03.04.2024 10:15";146
"03.04.2024 10:30";146
"03.04.2024 10:45";146
"03.04.2024 11:00";146
"03.04.2024 11:15";146
"03.04.2024 11:30";146
"03.04.2024 11:45";147
"03.04.2024 12:00";147
"03.04.2024 12:15";146
"03.04.2024 12:30";146
"03.04.2024 12:45";146
"03.04.2024 13:00";146
"03.04.2024 13:15";146
"03.04.2024 13:30";146
"03.04.2024 13:45";146
"03.04.2024 14:00";146
"03.04.2024 14:15";146
"03.04.2024 14:30";146
"03.04.2024 14:45";146
"03.04.2024 15:00";146
"03.04.2024 15:15";146
"03.04.2024 15:30";146
"03.04.2024 15:45";146
"03.04.2024 16:00";146
"03.04.2024 16:15";146
"03.04.2024 16:30";146
"03.04.2024 16:45";146
"03.04.2024 17:00";146
"03.04.2024 17:15";146
"03.04.2024 17:30";146
"03.04.2024 17:45";146
"03.04.2024 18:00";146
"03.04.2024 18:15";146
"03.04.2024 18:30";146
"03.04.2024 18:45";146
"03.04.2024 19:00";146
"03.04.2024 19:15";146
"03.04.2024 19:30";146
"03.04.2024 19:45";146
"03.04.2024 20:00";146
"03.04.2024 20:15";146
"03.04.2024 20:30";146
"03.04.2024 20:45";146
"03.04.2024 21:00";146
"03.04.2024 21:15";146
"03.04.2024 21:30";146
"03.04.2024 21:45";146
"03.04.2024 22:00";146
"03.04.2024 22:15";146
"03.04.2024 22:30";146
"03.04.2024 22:45";146
"03.04.2024 23:00";146
"03.04.2024 23:15";146
"03.04.2024 23:30";146
"03.04.2024 23:45";146
"04.04.2024 00:00";146
"04.04.2024 00:15";145
"04.04.2024 00:30";145
"04.04.2024 00:45";146
"04.04.2024 01:00";146
"04.04.2024 01:15";146
"04.04.2024 01:30";145
"04.04.2024 01:45";146
"04.04.2024 02:00";145
"04.04.2024 02:15";146
"04.04.2024 02:30";146
"04.04.2024 02:45";146
"04.04.2024 03:00";146
"04.04.2024 03:15";146
"04.04.2024 03:30";146
"04.04.2024 03:45";146
"04.04.2024 04:00";146
"04.04.2024 04:15";146
"04.04.2024 04:30";146
"04.04.2024 04:45";145
"04.04.2024 05:00";146
"04.04.2024 05:15";146
"04.04.2024 05:30";146
"04.04.2024 05:45";146
"04.04.2024 06:00";146
"04.04.2024 06:15";146
"04.04.2024 06:30";145
"04.04.2024 06:45";146
"04.04.2024 07:00";146
"04.04.2024 07:15";146
"04.04.2024 07:30";146
"04.04.2024 07:45";146
"04.04.2024 08:00";146
"04.04.2024 08:15";146
"04.04.2024 08:30";146
"04.04.2024 08:45";146
"04.04.2024 09:00";146
"04.04.2024 09:15";145
"04.04.2024 09:30";146
"04.04.2024 09:45";146
"04.04.2024 10:00";146
"04.04.2024 10:15";146
"04.04.2024 10:30";146
"04.04.2024 10:45";146
"04.04.2024 11:00";146
"04.04.2024 11:15";146
"04.04.2024 11:30";146
"04.04.2024 11:45";146
"04.04.2024 12:00";146
"04.04.2024 12:15";146
"04.04.2024 12:30";146
"04.04.2024 12:45";146
"04.04.2024 13:00";146
"04.04.2024 13:15";146
"04.04.2024 13:30";146
"04.04.2024 13:45";146
"04.04.2024 14:00";146
"04.04.2024 14:15";146
"04.04.2024 14:30";147
"04.04.2024 14:45";147
"04.04.2024 15:00";147
"04.04.2024 15:15";146
"04.04.2024 15:30";147
"04.04.2024 15:45";146
"04.04.2024 16:00";147
"04.04.2024 16:15";146
"04.04.2024 16:30";147
"04.04.2024 16:45";147
"04.04.2024 17:00";147
"04.04.2024 17:15";147
"04.04.2024 17:30";147
"04.04.2024 17:45";147
"04.04.2024 18:00";147
"04.04.2024 18:15";147
"04.04.2024 18:30";147
"04.04.2024 18:45";147
"04.04.2024 19:00";147
"04.04.2024 19:15";147
"04.04.2024 19:30";147
"04.04.2024 19:45";147
"04.04.2024 20:00";147
"04.04.2024 20:15";147
"04.04.2024 20:30";147
"04.04.2024 20:45";147
"04.04.2024 21:00";147
"04.04.2024 21:15";147
"04.04.2024 21:30";147
"04.04.2024 21:45";147
"04.04.2024 22:00";147
"04.04.2024 22:15";148
"04.04.2024 22:30";148
"04.04.2024 22:45";148
"04.04.2024 23:00";148
"04.04.2024 23:15";148
"04.04.2024 23:30";148
"04.04.2024 23:45";148
"05.04.2024 00:00";148
"05.04.2024 00:15";148
"05.04.2024 00:30";148
"05.04.2024 00:45";148
"05.04.2024 01:00";148
"05.04.2024 01:15";148
"05.04.2024 01:30";148
"05.04.2024 01:45";148
"05.04.2024 02:00";148
"05.04.2024 02:15";148
"05.04.2024 02:30";148
"05.04.2024 02:45";148
"05.04.2024 03:00";148
"05.04.2024 03:15";148
"05.04.2024 03:30";149
"05.04.2024 03:45";148
"05.04.2024 04:00";148
"05.04.2024 04:15";149
"05.04.2024 04:30";149
"05.04.2024 04:45";149
"05.04.2024 05:00";149
"05.04.2024 05:15";149
"05.04.2024 05:30";149
"05.04.2024 05:45";149
"05.04.2024 06:00";149
"05.04.2024 06:15";149
"05.04.2024 06:30";149
"05.04.2024 06:45";149
"05.04.2024 07:00";149
"05.04.2024 07:15";149
"05.04.2024 07:30";149
"05.04.2024 07:45";149
"05.04.2024 08:00";149
"05.04.2024 08:15";149
"05.04.2024 08:30";149
"05.04.2024 08:45";149
"05.04.2024 09:00";149
"05.04.2024 09:15";149
"05.04.2024 09:30";149
"05.04.2024 09:45";149
"05.04.2024 10:00";149
"05.04.2024 10:15";149
"05.04.2024 10:30";150
"05.04.2024 10:45";150
"05.04.2024 11:00";150
"05.04.2024 11:15";150
"05.04.2024 11:30";150
"05.04.2024 11:45";150
"05.04.2024 12:00";150
"05.04.2024 12:15";150
"05.04.2024 12:30";150
"05.04.2024 12:45";150
"05.04.2024 13:00";150
"05.04.2024 13:15";150
"05.04.2024 13:30";150
"05.04.2024 13:45";150
"05.04.2024 14:00";150
"05.04.2024 14:15";150
"05.04.2024 14:30";150
"05.04.2024 14:45";150
"05.04.2024 15:00";150
"05.04.2024 15:15";150
"05.04.2024 15:30";150
"05.04.2024 15:45";150
"05.04.2024 16:00";150
"05.04.2024 16:15";150
"05.04.2024 16:30";151
"05.04.2024 16:45";150
"05.04.2024 17:00";151
"05.04.2024 17:15";151
"05.04.2024 17:30";151
"05.04.2024 17:45";151
"05.04.2024 18:00";151
"05.04.2024 18:15";151
"05.04.2024 18:30";151
"05.04.2024 18:45";151
"05.04.2024 19:00";151
"05.04.2024 19:15";151
"05.04.2024 19:30";151
"05.04.2024 19:45";151
"05.04.2024 20:00";151
"05.04.2024 20:15";151
"05.04.2024 20:30";151
"05.04.2024 20:45";151
"05.04.2024 21:00";151
"05.04.2024 21:15";151
"05.04.2024 21:30";151
"05.04.2024 21:45";151
"05.04.2024 22:00";151
"05.04.2024 22:15";151
"05.04.2024 22:30";151
"05.04.2024 22:45";151
"05.04.2024 23:00";151
"05.04.2024 23:15";151
"05.04.2024 23:30";152
"05.04.2024 23:45";152
"06.04.2024 00:00";152
"06.04.2024 00:15";152
"06.04.2024 00:30";152
"06.04.2024 00:45";152
"06.04.2024 01:00";152
"06.04.2024 01:15";152
"06.04.2024 01:30";152
"06.04.2024 01:45";152
"06.04.2024 02:00";152
"06.04.2024 02:15";152
"06.04.2024 02:30";152
"06.04.2024 02:45";152
"06.04.2024 03:00";152
"06.04.2024 03:15";152
"06.04.2024 03:30";152
"06.04.2024 03:45";152
"06.04.2024 04:00";152
"06.04.2024 04:15";152
"06.04.2024 04:30";152
"06.04.2024 04:45";152
"06.04.2024 05:00";152
"06.04.2024 05:15";152
"06.04.2024 05:30";152
"06.04.2024 05:45";153
"06.04.2024 06:00";152
"06.04.2024 06:15";153
"06.04.2024 06:30";153
"06.04.2024 06:45";153
"06.04.2024 07:00";153
"06.04.2024 07:15";153
"06.04.2024 07:30";153
"06.04.2024 07:45";153
"06.04.2024 08:00";153
"06.04.2024 08:15";153
"06.04.2024 08:30";153
"06.04.2024 08:45";153
"06.04.2024 09:00";153
"06.04.2024 09:15";153
"06.04.2024 09:30";153
"06.04.2024 09:45";153
"06.04.2024 10:00";153
"06.04.2024 10:15";153
"06.04.2024 10:30";153
"06.04.2024 10:45";153
"06.04.2024 11:00";153
"06.04.2024 11:15";153
"06.04.2024 11:30";153
"06.04.2024 11:45";153
"06.04.2024 12:00";154
"06.04.2024 12:15";153
"06.04.2024 12:30";153
"06.04.2024 12:45";154
"06.04.2024 13:00";154
"06.04.2024 13:15";154
"06.04.2024 13:30";154
"06.04.2024 13:45";154
"06.04.2024 14:00";154
"06.04.2024 14:15";154
"06.04.2024 14:30";154
"06.04.2024 14:45";154
"06.04.2024 15:00";154
"06.04.2024 15:15";154
"06.04.2024 15:30";154
"06.04.2024 15:45";154
"06.04.2024 16:00";154
"06.04.2024 16:15";154
"06.04.2024 16:30";154
"06.04.2024 16:45";154
"06.04.2024 17:00";154
"06.04.2024 17:15";154
"06.04.2024 17:30";154
"06.04.2024 17:45";154
"06.04.2024 18:00";154
"06.04.2024 18:15";154
"06.04.2024 18:30";154
"06.04.2024 18:45";154
"06.04.2024 19:00";154
"06.04.2024 19:15";155
"06.04.2024 19:30";155
"06.04.2024 19:45";155
"06.04.2024 20:00";155
"06.04.2024 20:15";155
"06.04.2024 20:30";155
"06.04.2024 20:45";155
"06.04.2024 21:00";155
"06.04.2024 21:15";155
"06.04.2024 21:30";155
"06.04.2024 21:45";155
"06.04.2024 22:00";155
"06.04.2024 22:15";155
"06.04.2024 22:30";155
"06.04.2024 22:45";155
"06.04.2024 23:00";155
"06.04.2024 23:15";155
"06.04.2024 23:30";155
"06.04.2024 23:45";155
"07.04.2024 00:00";155
"07.04.2024 00:15";155
"07.04.2024 00:30";155
"07.04.2024 00:45";155
"07.04.2024 01:00";155
"07.04.2024 01:15";155
"07.04.2024 01:30";155
"07.04.2024 01:45";155
"07.04.2024 02:00";155
"07.04.2024 02:15";155
"07.04.2024 02:30";155
"07.04.2024 02:45";155
"07.04.2024 03:00";155
"07.04.2024 03:15";156
"07.04.2024 03:30";156
"07.04.2024 03:45";155
"07.04.2024 04:00";155
"07.04.2024 04:15";156
"07.04.2024 04:30";156
"07.04.2024 04:45";156
"07.04.2024 05:00";156
"07.04.2024 05:15";156
"07.04.2024 05:30";156
"07.04.2024 05:45";156
"07.04.2024 06:00";156
"07.04.2024 06:15";156
"07.04.2024 06:30";156
"07.04.2024 06:45";156
"07.04.2024 07:00";156
"07.04.2024 07:15";156
"07.04.2024 07:30";156
"07.04.2024 07:45";156
"07.04.2024 08:00";156
"07.04.2024 08:15";156
"07.04.2024 08:30";156
"07.04.2024 08:45";156
"07.04.2024 09:00";156
"07.04.2024 09:15";156
"07.04.2024 09:30";156
"07.04.2024 09:45";156
"07.04.2024 10:00";156
"07.04.2024 10:15";156
"07.04.2024 10:30";156
"07.04.2024 10:45";156
"07.04.2024 11:00";156
"07.04.2024 11:15";156
"07.04.2024 11:30";156
"07.04.2024 11:45";156
"07.04.2024 12:00";156
"07.04.2024 12:15";156
"07.04.2024 12:30";156
"07.04.2024 12:45";156
"07.04.2024 13:00";156
"07.04.2024 13:15";156
"07.04.2024 13:30";156
"07.04.2024 13:45";156
"07.04.2024 14:00";156
"07.04.2024 14:15";156
"07.04.2024 14:30";156
"07.04.2024 14:45";156
"07.04.2024 15:00";156
"07.04.2024 15:15";156
"07.04.2024 15:30";156
"07.04.2024 15:45";156
"07.04.2024 16:00";156
"07.04.2024 16:15";156
"07.04.2024 16:30";156
"07.04.2024 16:45";156
"07.04.2024 17:00";156
"07.04.2024 17:15";156
"07.04.2024 17:30";156
"07.04.2024 17:45";156
"07.04.2024 18:00";156
"07.04.2024 18:15";156
"07.04.2024 18:30";156
"07.04.2024 18:45";156
"07.04.2024 19:00";156
"07.04.2024 19:15";156
"07.04.2024 19:30";156
"07.04.2024 19:45";156
"07.04.2024 20:00";156
"07.04.2024 20:15";156
"07.04.2024 20:30";156
"07.04.2024 20:45";156
"07.04.2024 21:00";156
"07.04.2024 21:15";156
"07.04.2024 21:30";156
"07.04.2024 21:45";156
"07.04.2024 22:00";156
"07.04.2024 22:15";156
"07.04.2024 22:30";156
"07.04.2024 22:45";156
"07.04.2024 23:00";156
"07.04.2024 23:15";156
"07.04.2024 23:30";156
"07.04.2024 23:45";156
"08.04.2024 00:00";156
"08.04.2024 00:15";156
"08.04.2024 00:30";156
"08.04.2024 00:45";156
"08.04.2024 01:00";156
"08.04.2024 01:15";156
"08.04.2024 01:30";156
"08.04.2024 01:45";156
"08.04.2024 02:00";156
"08.04.2024 02:15";156
"08.04.2024 02:30";156
"08.04.2024 02:45";156
"08.04.2024 03:00";156
"08.04.2024 03:15";156
"08.04.2024 03:30";156
"08.04.2024 03:45";156
"08.04.2024 04:00";156
"08.04.2024 04:15";156
"08.04.2024 04:30";156
"08.04.2024 04:45";156
"08.04.2024 05:00";156
"08.04.2024 05:15";156
"08.04.2024 05:30";156
"08.04.2024 05:45";156
"08.04.2024 06:00";156
"08.04.2024 06:15";156
"08.04.2024 06:30";156
"08.04.2024 06:45";156
"08.04.2024 07:00";156
"08.04.2024 07:15";156
"08.04.2024 07:30";156
"08.04.2024 07:45";156
"08.04.2024 08:00";156
"08.04.2024 08:15";156
"08.04.2024 08:30";156
"08.04.2024 08:45";156
"08.04.2024 09:00";156
"08.04.2024 09:15";156
"08.04.2024 09:30";156
"08.04.2024 09:45";156
"08.04.2024 10:00";156
"08.04.2024 10:15";156
"08.04.2024 10:30";156
"08.04.2024 10:45";156
"08.04.2024 11:00";156
"08.04.2024 11:15";156
"08.04.2024 11:30";156
"08.04.2024 11:45";156
"08.04.2024 12:00";156
"08.04.2024 12:15";156
"08.04.2024 12:30";156
"08.04.2024 12:45";156
"08.04.2024 13:00";156
"08.04.2024 13:15";156
"08.04.2024 13:30";156
"08.04.2024 13:45";156
"08.04.2024 14:00";156
"08.04.2024 14:15";156
"08.04.2024 14:30";156
"08.04.2024 14:45";156
"08.04.2024 15:00";156
"08.04.2024 15:15";156
"08.04.2024 15:30";156
"08.04.2024 15:45";156
"08.04.2024 16:00";156
"08.04.2024 16:15";156
"08.04.2024 16:30";156
"08.04.2024 16:45";156
"08.04.2024 17:00";156
"08.04.2024 17:15";156
"08.04.2024 17:30";156
"08.04.2024 17:45";156
"08.04.2024 18:00";156
"08.04.2024 18:15";156
"08.04.2024 18:30";156
"08.04.2024 18:45";156
"08.04.2024 19:00";157
"08.04.2024 19:15";156
"08.04.2024 19:30";157
"08.04.2024 19:45";157
"08.04.2024 20:00";157
"08.04.2024 20:15";157
"08.04.2024 20:30";157
"08.04.2024 20:45";157
"08.04.2024 21:00";157
"08.04.2024 21:15";157
"08.04.2024 21:30";157
"08.04.2024 21:45";157
"08.04.2024 22:00";157
"08.04.2024 22:15";157
"08.04.2024 22:30";157
"08.04.2024 22:45";157
"08.04.2024 23:00";157
"08.04.2024 23:15";157
"08.04.2024 23:30";157
"08.04.2024 23:45";157
"09.04.2024 00:00";157
"09.04.2024 00:15";157
"09.04.2024 00:30";157
"09.04.2024 00:45";157
"09.04.2024 01:00";157
"09.04.2024 01:15";157
"09.04.2024 01:30";157
"09.04.2024 01:45";157
"09.04.2024 02:00";157
"09.04.2024 02:15";157
"09.04.2024 02:30";157
"09.04.2024 02:45";157
"09.04.2024 03:00";157
"09.04.2024 03:15";157
"09.04.2024 03:30";157
"09.04.2024 03:45";157
"09.04.2024 04:00";157
"09.04.2024 04:15";157
"09.04.2024 04:30";157
"09.04.2024 04:45";157
"09.04.2024 05:00";157
"09.04.2024 05:15";157
"09.04.2024 05:30";157
"09.04.2024 05:45";157
"09.04.2024 06:00";157
"09.04.2024 06:15";157
"09.04.2024 06:30";157
"09.04.2024 06:45";157
"09.04.2024 07:00";157
"09.04.2024 07:15";157
"09.04.2024 07:30";157
"09.04.2024 07:45";157
"09.04.2024 08:00";157
"09.04.2024 08:15";157
"09.04.2024 08:30";157
"09.04.2024 08:45";157
"09.04.2024 09:00";156
"09.04.2024 09:15";156
"09.04.2024 09:30";157
"09.04.2024 09:45";156
"09.04.2024 10:00";156
"09.04.2024 10:15";156
"09.04.2024 10:30";156
"09.04.2024 10:45";156
"09.04.2024 11:00";156
"09.04.2024 11:15";156
"09.04.2024 11:30";156
"09.04.2024 11:45";156
"09.04.2024 12:00";156
"09.04.2024 12:15";156
"09.04.2024 12:30";156
"09.04.2024 12:45";156
"09.04.2024 13:00";157
"09.04.2024 13:15";156
"09.04.2024 13:30";156
"09.04.2024 13:45";157
"09.04.2024 14:00";157
"09.04.2024 14:15";157
"09.04.2024 14:30";157
"09.04.2024 14:45";157
"09.04.2024 15:00";157
"09.04.2024 15:15";157
"09.04.2024 15:30";157
"09.04.2024 15:45";157
"09.04.2024 16:00";157
"09.04.2024 16:15";157
"09.04.2024 16:30";157
"09.04.2024 16:45";157
"09.04.2024 17:00";157
"09.04.2024 17:15";157
"09.04.2024 17:30";157
"09.04.2024 17:45";157
"09.04.2024 18:00";157
"09.04.2024 18:15";157
"09.04.2024 18:30";158
"09.04.2024 18:45";157
"09.04.2024 19:00";158
"09.04.2024 19:15";157
"09.04.2024 19:30";157
"09.04.2024 19:45";157
"09.04.2024 20:00";158
"09.04.2024 20:15";158
"09.04.2024 20:30";158
"09.04.2024 20:45";158
"09.04.2024 21:00";158
"09.04.2024 21:15";158
"09.04.2024 21:30";158
"09.04.2024 21:45";158
"09.04.2024 22:00";158
"09.04.2024 22:15";158
"09.04.2024 22:30";158
"09.04.2024 22:45";158
"09.04.2024 23:00";158
"09.04.2024 23:15";158
"09.04.2024 23:30";158
"09.04.2024 23:45";158
"10.04.2024 00:00";158
"10.04.2024 00:15";158
"10.04.2024 00:30";158
"10.04.2024 00:45";158
"10.04.2024 01:00";158
"10.04.2024 01:15";158
"10.04.2024 01:30";158
"10.04.2024 01:45";158
"10.04.2024 02:00";158
"10.04.2024 02:15";158
"10.04.2024 02:30";158
"10.04.2024 02:45";158
"10.04.2024 03:00";158
"10.04.2024 03:15";158
"10.04.2024 03:30";158
"10.04.2024 03:45";158
"10.04.2024 04:00";158
"10.04.2024 04:15";159
"10.04.2024 04:30";159
"10.04.2024 04:45";159
"10.04.2024 05:00";159
"10.04.2024 05:15";159
"10.04.2024 05:30";158
"10.04.2024 05:45";159
"10.04.2024 06:00";158
"10.04.2024 06:15";159
"10.04.2024 06:30";158
"10.04.2024 06:45";158
"10.04.2024 07:00";158
"10.04.2024 07:15";158
"10.04.2024 07:30";158
"10.04.2024 07:45";158
"10.04.2024 08:00";158
"10.04.2024 08:15";158
"10.04.2024 08:30";158
"10.04.2024 08:45";158
"10.04.2024 09:00";158
"10.04.2024 09:15";158
"10.04.2024 09:30";158
"10.04.2024 09:45";158
"10.04.2024 10:00";158
"10.04.2024 10:15";158
"10.04.2024 10:30";158
"10.04.2024 10:45";158
"10.04.2024 11:00";158
"10.04.2024 11:15";158
"10.04.2024 11:30";158
"10.04.2024 11:45";158
"10.04.2024 12:00";158
"10.04.2024 12:15";158
"10.04.2024 12:30";158
"10.04.2024 12:45";158
"10.04.2024 13:00";158
"10.04.2024 13:15";158
"10.04.2024 13:30";158
"10.04.2024 13:45";158
"10.04.2024 14:00";158
"10.04.2024 14:15";158
"10.04.2024 14:30";158
"10.04.2024 14:45";158
"10.04.2024 15:00";158
"10.04.2024 15:15";158
"10.04.2024 15:30";158
"10.04.2024 15:45";158
"10.04.2024 16:00";158
"10.04.2024 16:15";158
"10.04.2024 16:30";158
"10.04.2024 16:45";158
"10.04.2024 17:00";158
"10.04.2024 17:15";158
"10.04.2024 17:30";158
"10.04.2024 17:45";158
"10.04.2024 18:00";158
"10.04.2024 18:15";158
"10.04.2024 18:30";158
"10.04.2024 18:45";158
"10.04.2024 19:00";158
"10.04.2024 19:15";158
"10.04.2024 19:30";158
"10.04.2024 19:45";158
"10.04.2024 20:00";157
"10.04.2024 20:15";158
"10.04.2024 20:30";157
"10.04.2024 20:45";157
"10.04.2024 21:00";157
"10.04.2024 21:15";157
"10.04.2024 21:30";157
"10.04.2024 21:45";157
"10.04.2024 22:00";157
"10.04.2024 22:15";157
"10.04.2024 22:30";157
"10.04.2024 22:45";157
"10.04.2024 23:00";157
"10.04.2024 23:15";157
"10.04.2024 23:30";157
"10.04.2024 23:45";157
"11.04.2024 00:00";157
"11.04.2024 00:15";157
"11.04.2024 00:30";157
"11.04.2024 00:45";157
"11.04.2024 01:00";157
"11.04.2024 01:15";157
"11.04.2024 01:30";157
"11.04.2024 01:45";157
"11.04.2024 02:00";157
"11.04.2024 02:15";157
"11.04.2024 02:30";157
"11.04.2024 02:45";157
"11.04.2024 03:00";157
"11.04.2024 03:15";157
"11.04.2024 03:30";157
"11.04.2024 03:45";157
"11.04.2024 04:00";157
"11.04.2024 04:15";157
"11.04.2024 04:30";157
"11.04.2024 04:45";157
"11.04.2024 05:00";157
"11.04.2024 05:15";157
"11.04.2024 05:30";157
"11.04.2024 05:45";157
"11.04.2024 06:00";157
"11.04.2024 06:15";156
"11.04.2024 06:30";156
"11.04.2024 06:45";156
"11.04.2024 07:00";156
"11.04.2024 07:15";156
"11.04.2024 07:30";156
"11.04.2024 07:45";156
"11.04.2024 08:00";156
"11.04.2024 08:15";156
"11.04.2024 08:30";156
"11.04.2024 08:45";156
"11.04.2024 09:00";156
"11.04.2024 09:15";156
"11.04.2024 09:30";156
"11.04.2024 09:45";156
"11.04.2024 10:00";156
"11.04.2024 10:15";156
"11.04.2024 10:30";156
"11.04.2024 10:45";156
"11.04.2024 11:00";156
"11.04.2024 11:15";156
"11.04.2024 11:30";156
"11.04.2024 11:45";156
"11.04.2024 12:00";156
"11.04.2024 12:15";156
"11.04.2024 12:30";155
"11.04.2024 12:45";155
"11.04.2024 13:00";155
"11.04.2024 13:15";155
"11.04.2024 13:30";155
"11.04.2024 13:45";155
"11.04.2024 14:00";155
"11.04.2024 14:15";155
"11.04.2024 14:30";155
"11.04.2024 14:45";155
"11.04.2024 15:00";154
"11.04.2024 15:15";154
"11.04.2024 15:30";154
"11.04.2024 15:45";154
"11.04.2024 16:00";154
"11.04.2024 16:15";154
"11.04.2024 16:30";154
"11.04.2024 16:45";154
"11.04.2024 17:00";153
"11.04.2024 17:15";153
"11.04.2024 17:30";153
"11.04.2024 17:45";153
"11.04.2024 18:00";153
"11.04.2024 18:15";153
"11.04.2024 18:30";153
"11.04.2024 18:45";153
"11.04.2024 19:00";153
"11.04.2024 19:15";153
"11.04.2024 19:30";152
"11.04.2024 19:45";152
"11.04.2024 20:00";152
"11.04.2024 20:15";152
"11.04.2024 20:30";152
"11.04.2024 20:45";152
"11.04.2024 21:00";152
"11.04.2024 21:15";152
"11.04.2024 21:30";152
"11.04.2024 21:45";152
"11.04.2024 22:00";152
"11.04.2024 22:15";151
"11.04.2024 22:30";151
"11.04.2024 22:45";151
"11.04.2024 23:00";151
"11.04.2024 23:15";151
"11.04.2024 23:30";151
"11.04.2024 23:45";151
"12.04.2024 00:00";151
"12.04.2024 00:15";151
"12.04.2024 00:30";151
"12.04.2024 00:45";151
"12.04.2024 01:00";151
"12.04.2024 01:15";150
"12.04.2024 01:30";150
"12.04.2024 01:45";150
"12.04.2024 02:00";150
"12.04.2024 02:15";150
"12.04.2024 02:30";150
"12.04.2024 02:45";150
"12.04.2024 03:00";150
"12.04.2024 03:15";150
"12.04.2024 03:30";150
"12.04.2024 03:45";150
"12.04.2024 04:00";150
"12.04.2024 04:15";150
"12.04.2024 04:30";149
"12.04.2024 04:45";149
"12.04.2024 05:00";149
"12.04.2024 05:15";149
"12.04.2024 05:30";149
"12.04.2024 05:45";149
"12.04.2024 06:00";149
"12.04.2024 06:15";149
"12.04.2024 06:30";149
"12.04.2024 06:45";149
"12.04.2024 07:00";149
"12.04.2024 07:15";149
"12.04.2024 07:30";149
"12.04.2024 07:45";149
"12.04.2024 08:00";149
"12.04.2024 08:15";149
"12.04.2024 08:30";148
"12.04.2024 08:45";148
"12.04.2024 09:00";148
"12.04.2024 09:15";148
"12.04.2024 09:30";148
"12.04.2024 09:45";148
"12.04.2024 10:00";148
"12.04.2024 10:15";148
"12.04.2024 10:30";148
"12.04.2024 10:45";148
"12.04.2024 11:00";148
"12.04.2024 11:15";148
"12.04.2024 11:30";148
"12.04.2024 11:45";148
"12.04.2024 12:00";148
"12.04.2024 12:15";148
"12.04.2024 12:30";148
"12.04.2024 12:45";147
"12.04.2024 13:00";147
"12.04.2024 13:15";148
"12.04.2024 13:30";147
"12.04.2024 13:45";147
"12.04.2024 14:00";147
"12.04.2024 14:15";147
"12.04.2024 14:30";147
"12.04.2024 14:45";147
"12.04.2024 15:00";147
"12.04.2024 15:15";147
"12.04.2024 15:30";147
"12.04.2024 15:45";147
"12.04.2024 16:00";147
"12.04.2024 16:15";147
"12.04.2024 16:30";147
"12.04.2024 16:45";147
"12.04.2024 17:00";147
"12.04.2024 17:15";147
"12.04.2024 17:30";147
"12.04.2024 17:45";147
"12.04.2024 18:00";147
"12.04.2024 18:15";147
"12.04.2024 18:30";147
"12.04.2024 18:45";147
"12.04.2024 19:00";147
"12.04.2024 19:15";146
"12.04.2024 19:30";147
"12.04.2024 19:45";146
"12.04.2024 20:00";146
"12.04.2024 20:15";146
"12.04.2024 20:30";146
"12.04.2024 20:45";146
"12.04.2024 21:00";146
"12.04.2024 21:15";146
"12.04.2024 21:30";146
"12.04.2024 21:45";146
"12.04.2024 22:00";146
"12.04.2024 22:15";146
"12.04.2024 22:30";146
"12.04.2024 22:45";146
"12.04.2024 23:00";146
"12.04.2024 23:15";146
"12.04.2024 23:30";146
"12.04.2024 23:45";146
"13.04.2024 00:00";146
"13.04.2024 00:15";146
"13.04.2024 00:30";146
"13.04.2024 00:45";146
"13.04.2024 01:00";146
"13.04.2024 01:15";146
"13.04.2024 01:30";146
"13.04.2024 01:45";146
"13.04.2024 02:00";146
"13.04.2024 02:15";146
"13.04.2024 02:30";146
"13.04.2024 02:45";146
"13.04.2024 03:00";146
"13.04.2024 03:15";145
"13.04.2024 03:30";145
"13.04.2024 03:45";145
"13.04.2024 04:00";145
"13.04.2024 04:15";145
"13.04.2024 04:30";145
"13.04.2024 04:45";145
"13.04.2024 05:00";145
"13.04.2024 05:15";145
"13.04.2024 05:30";145
"13.04.2024 05:45";145
"13.04.2024 06:00";145
"13.04.2024 06:15";145
"13.04.2024 06:30";145
"13.04.2024 06:45";145
"13.04.2024 07:00";145
"13.04.2024 07:15";145
"13.04.2024 07:30";145
"13.04.2024 07:45";145
"13.04.2024 08:00";145
"13.04.2024 08:15";145
"13.04.2024 08:30";145
"13.04.2024 08:45";145
"13.04.2024 09:00";145
"13.04.2024 09:15";145
"13.04.2024 09:30";145
"13.04.2024 09:45";145
"13.04.2024 10:00";145
"13.04.2024 10:15";145
"13.04.2024 10:30";145
"13.04.2024 10:45";145
"13.04.2024 11:00";144
"13.04.2024 11:15";145
"13.04.2024 11:30";144
"13.04.2024 11:45";144
"13.04.2024 12:00";144
"13.04.2024 12:15";144
"13.04.2024 12:30";144
"13.04.2024 12:45";144
"13.04.2024 13:00";144
"13.04.2024 13:15";144
"13.04.2024 13:30";144
"13.04.2024 13:45";144
"13.04.2024 14:00";144
"13.04.2024 14:15";144
"13.04.2024 14:30";144
"13.04.2024 14:45";144
"13.04.2024 15:00";144
"13.04.2024 15:15";144
"13.04.2024 15:30";144
"13.04.2024 15:45";144
"13.04.2024 16:00";144
"13.04.2024 16:15";144
"13.04.2024 16:30";144
"13.04.2024 16:45";144
"13.04.2024 17:00";144
"13.04.2024 17:15";144
"13.04.2024 17:30";144
"13.04.2024 17:45";144
"13.04.2024 18:00";144
"13.04.2024 18:15";144
"13.04.2024 18:30";144
"13.04.2024 18:45";144
"13.04.2024 19:00";144
"13.04.2024 19:15";144